Flag for Spain Weather past 2 weeks in Las Palmas, Canary Islands, Spain

79 °F

Passing clouds.

Feels Like: 81 °F
Forecast: 75 / 78 °F
Wind: 3 mph from East

Location: Las Palmas De Gran Canaria / Gando

Current Time: Oct 10, 2015 at 11:13:15 AM

Latest Report: Oct 10, 2015 at 10:30 AM

Visibility: N/A

Pressure: 29.95 "Hg

Humidity: 65%

Dew point: 66 °F

Location of Las PalmasLocation

Historic Weather in Las Palmas — Graph


Las Palmas temperature yesterday

Maximum temperature yesterday: 81 °F (at 11:30 AM)
Minimum temperature yesterday: 70 °F (at 8:00 AM)
Average temperature yesterday: 75 °F

Past Weeks' High & Low Weather Summary

High93 °F (Oct 5, 12:30 PM)94% (Oct 3, 8:00 AM)30.15 "Hg (Oct 3, 8:00 AM)
Low68 °F (Sep 29, 5:30 AM)33% (Oct 4, 2:30 PM)29.92 "Hg (Sep 29, 4:00 AM)
Average77 °F67%30.04 "Hg
* Reported Sep 25 10:00 AM — Oct 10 10:00 AM, Las Palmas, Weather by CustomWeather, © 2015

Note: Actual official high and low records may vary slightly from our data, if they occured in-between our weather recording intervals... More about our weather records


Las Palmas weather history for previous 24 hours

Time TempWeatherWind HumidityBarometerVisibility
10:00 AM
Sat, Oct 10
79 °FPassing clouds.2 mph61%29.95 "HgN/A
9:30 AM77 °FPassing clouds.2 mph61%29.95 "HgN/A
9:00 AM75 °FPassing clouds.2 mph61%29.95 "HgN/A
8:30 AM73 °FPassing clouds.No wind65%29.95 "HgN/A
8:00 AM72 °FPassing clouds.No wind69%29.92 "HgN/A
7:30 AM72 °FPassing clouds.No wind73%29.92 "HgN/A
7:00 AM72 °FPassing clouds.1 mph73%29.92 "HgN/A
6:30 AM72 °FPassing clouds.1 mph78%29.92 "HgN/A
6:00 AM73 °FPassing clouds.3 mph74%29.92 "HgN/A
5:30 AM73 °FPassing clouds.1 mph74%29.92 "HgN/A
5:00 AM73 °FPartly cloudy.2 mph74%29.95 "HgN/A
4:30 AM73 °FPartly cloudy.2 mph74%29.95 "HgN/A
4:00 AM73 °FPassing clouds.2 mph74%29.95 "HgN/A
3:30 AM73 °FPassing clouds.2 mph74%29.95 "HgN/A
3:00 AM72 °FPassing clouds.2 mph78%29.95 "HgN/A
2:30 AM73 °FPassing clouds.2 mph74%29.98 "HgN/A
2:00 AM73 °FClear.2 mph74%29.98 "Hg10 mi
1:30 AM73 °FClear.No wind74%29.98 "Hg10 mi
1:00 AM73 °FClear.2 mph74%29.98 "Hg10 mi
12:30 AM73 °FClear.2 mph74%30.01 "Hg10 mi
12:00 AM73 °FClear.1 mph74%30.01 "Hg10 mi
11:30 PM
Fri, Oct 9
75 °FPassing clouds.No wind69%30.01 "HgN/A
11:00 PM75 °FPassing clouds.1 mph69%30.01 "HgN/A
10:00 PM75 °FPassing clouds.No wind69%30.01 "HgN/A
9:30 PM75 °FPassing clouds.1 mph69%29.98 "HgN/A
9:00 PM75 °FPassing clouds.1 mph69%29.98 "HgN/A
8:30 PM75 °FPassing clouds.2 mph69%29.98 "HgN/A
8:00 PM75 °FPassing clouds.1 mph69%29.98 "HgN/A
7:30 PM75 °FPassing clouds.2 mph69%29.98 "HgN/A
7:00 PM75 °FPassing clouds.2 mph69%29.98 "HgN/A
6:30 PM77 °FScattered clouds.2 mph65%29.95 "HgN/A
6:00 PM75 °FScattered clouds.3 mph69%29.95 "HgN/A
5:30 PM77 °FScattered clouds.3 mph65%29.95 "HgN/A
5:00 PM77 °FPassing clouds.5 mph65%29.95 "HgN/A
4:30 PM77 °FPassing clouds.7 mph61%29.95 "HgN/A
3:30 PM79 °FPassing clouds.12 mph61%29.98 "HgN/A
3:00 PM81 °FPassing clouds.15 mph58%29.98 "HgN/A
2:30 PM81 °FPassing clouds.16 mph58%29.98 "HgN/A
2:00 PM81 °FPassing clouds.15 mph58%29.98 "HgN/A
1:30 PM81 °FPassing clouds.18 mph58%30.01 "HgN/A
1:00 PM81 °FPassing clouds.18 mph54%30.01 "HgN/A
12:30 PM81 °FPassing clouds.17 mph58%30.01 "HgN/A
12:00 PM81 °FPassing clouds.14 mph54%30.01 "HgN/A
11:30 AM81 °FPassing clouds.14 mph54%30.04 "HgN/A
11:00 AM79 °FPassing clouds.12 mph58%30.04 "HgN/A
Weather by CustomWeather, © 2015

See weather overviewHow to use our weather pages